Date String (YYYY-MM-DD hh:mm:ss) UTC,Instrument flags,absolute air pressure of the measurement (hPa),sample flow rate (lpm),inlet stack bypass flow (lpm),air temperature of the measurement (°C),ambient temperature measured by the external sensor (°C),aerosol sample conditioner tube jacket temperature (°C),OPC LED temperature (°C),internal box temperature (°C),relative humidity of the measurement (%),span deviation,mass concentration of particles derived from Lorenz-Mie calculation of OPC scattering (μg/m³),mass concentration of particles derived from Lorenz-Mie calculation of OPC scattering (μg/m³),mass concentration of particles derived from Lorenz-Mie calculation of OPC scattering (μg/m³)
DateTimeUTC,F1_M11,P_M11,Q1_M11,Q2_M11,T1_M11,T2_M11,T3_M11,T4_M11,T5_M11,U1_M11,ZSPAN_M11,X2_M11,X0_M11,X1_M11
2024-03-01 21:00:00,SystemResetWarning,0822.0,4.99,000.00,024.6,023.9,000.0,032.6,026.3,08.1,0000.0,0002.07,0009.11,0001.03
2024-03-01 21:01:00,SystemResetWarning,0822.0,5.00,000.00,024.6,023.9,000.0,032.7,026.3,08.1,0000.0,0002.05,0007.90,0001.04
2024-03-01 21:02:00,SystemResetWarning,0822.0,5.01,000.00,024.6,023.9,000.0,032.7,026.3,08.1,0000.0,0002.00,0007.25,0001.04
2024-03-01 21:03:00,SystemResetWarning,0821.9,5.01,000.00,024.6,024.0,000.0,032.7,026.3,08.0,0000.0,0001.93,0006.83,0001.04
2024-03-01 21:04:00,SystemResetWarning,0821.9,5.00,000.00,024.6,024.0,000.0,032.7,026.4,08.1,0000.0,0001.93,0006.48,0001.05
2024-03-01 21:05:00,SystemResetWarning,0821.9,4.99,000.00,024.6,024.0,000.0,032.7,026.3,07.9,0000.0,0001.92,0006.26,0001.05
2024-03-01 21:06:00,SystemResetWarning,0821.9,5.00,000.00,024.6,024.0,000.0,032.7,026.4,08.1,0000.0,0001.95,0006.42,0001.05
2024-03-01 21:07:00,SystemResetWarning,0821.8,5.00,000.00,024.6,024.0,000.0,032.7,026.4,08.2,0000.0,0001.93,0005.78,0001.04
2024-03-01 21:08:00,SystemResetWarning,0821.9,4.99,000.00,024.7,024.0,000.0,032.7,026.4,08.2,0000.0,0001.92,0005.18,0001.04
2024-03-01 21:09:00,SystemResetWarning,0821.8,5.00,000.00,024.7,024.0,000.0,032.8,026.4,08.2,0000.0,0001.97,0005.19,0001.04
2024-03-01 21:10:00,SystemResetWarning,0821.9,5.00,000.00,024.7,024.0,000.0,032.8,026.4,07.9,0000.0,0001.99,0005.34,0001.05
2024-03-01 21:11:00,SystemResetWarning,0821.8,5.01,000.00,024.7,024.0,000.0,032.8,026.4,07.9,0000.0,0001.97,0005.43,0001.06
2024-03-01 21:12:00,SystemResetWarning,0821.7,5.01,000.00,024.7,024.0,000.0,032.8,026.4,08.0,0000.0,0002.00,0005.51,0001.06
2024-03-01 21:13:00,SystemResetWarning,0821.8,5.00,000.00,024.7,024.0,000.0,032.8,026.4,08.1,0000.0,0001.98,0005.73,0001.06
2024-03-01 21:14:00,SystemResetWarning,0821.9,4.99,000.00,024.7,024.0,000.0,032.8,026.4,08.2,0000.0,0001.94,0006.09,0001.06
2024-03-01 21:15:00,SystemResetWarning,0821.9,4.99,000.00,024.7,024.0,000.0,032.8,026.4,08.3,0000.0,0001.91,0006.73,0001.05
2024-03-01 21:16:00,SystemResetWarning,0821.7,5.00,000.00,024.7,024.0,000.0,032.9,026.4,08.5,0000.0,0001.96,0007.52,0001.06
2024-03-01 21:17:00,SystemResetWarning,0821.8,5.00,000.00,024.7,024.1,000.0,032.9,026.5,08.4,0000.0,0001.90,0007.31,0001.05
2024-03-01 21:18:00,SystemResetWarning,0822.0,5.01,000.00,024.7,024.1,000.0,032.9,026.5,08.5,0000.0,0001.95,0007.67,0001.05
2024-03-01 21:19:00,SystemResetWarning,0821.9,5.01,000.00,024.7,024.1,000.0,032.9,026.5,08.6,0000.0,0001.98,0008.39,0001.07
2024-03-01 21:20:00,SystemResetWarning,0821.9,5.00,000.00,024.8,024.1,000.0,032.9,026.5,08.5,0000.0,0001.96,0008.70,0001.08
2024-03-01 21:21:00,SystemResetWarning,0821.9,5.00,000.00,024.8,024.1,000.0,032.9,026.5,08.6,0000.0,0001.97,0008.76,0001.07
2024-03-01 21:22:00,SystemResetWarning,0821.9,5.00,000.00,024.8,024.1,000.0,032.9,026.5,08.5,0000.0,0002.08,0009.08,0001.08
2024-03-01 21:23:00,SystemResetWarning,0821.9,4.99,000.00,024.8,024.1,000.0,032.9,026.6,08.4,0000.0,0002.07,0009.21,0001.08
2024-03-01 21:24:00,SystemResetWarning,0821.9,5.01,000.00,024.8,024.1,000.0,032.9,026.6,08.6,0000.0,0002.08,0009.03,0001.09
2024-03-01 21:25:00,SystemResetWarning,0821.9,5.01,000.00,024.8,024.1,000.0,032.9,026.6,08.7,0000.0,0002.12,0008.97,0001.10
2024-03-01 21:26:00,SystemResetWarning,0821.9,5.00,000.00,024.8,024.2,000.0,032.9,026.6,08.7,0000.0,0002.16,0008.74,0001.12
2024-03-01 21:27:00,SystemResetWarning,0821.9,4.98,000.00,024.8,024.2,000.0,032.9,026.6,08.6,0000.0,0002.10,0008.21,0001.11
2024-03-01 21:28:00,SystemResetWarning,0821.9,5.00,000.00,024.9,024.2,000.0,032.9,026.6,08.7,0000.0,0002.14,0008.57,0001.13
2024-03-01 21:29:00,SystemResetWarning,0821.8,5.00,000.00,024.9,024.2,000.0,033.0,026.6,08.8,0000.0,0002.11,0008.07,0001.15
2024-03-01 21:30:00,SystemResetWarning,0821.9,5.00,000.00,024.9,024.2,000.0,033.0,026.6,08.8,0000.0,0002.12,0007.36,0001.15
2024-03-01 21:31:00,SystemResetWarning,0821.8,5.00,000.00,024.9,024.2,000.0,033.0,026.6,08.8,0000.0,0002.15,0006.75,0001.15
2024-03-01 21:32:00,SystemResetWarning,0821.8,5.00,000.00,024.9,024.2,000.0,033.0,026.6,08.8,0000.0,0002.22,0006.78,0001.16
2024-03-01 21:33:00,SystemResetWarning,0821.8,5.00,000.00,024.9,024.2,000.0,033.0,026.6,08.7,0000.0,0002.19,0006.35,0001.16
2024-03-01 21:34:00,SystemResetWarning,0821.8,5.00,000.00,024.9,024.2,000.0,033.0,026.6,08.8,0000.0,0002.20,0006.49,0001.17
2024-03-01 21:35:00,SystemResetWarning,0821.8,4.99,000.00,024.9,024.2,000.0,033.0,026.6,08.8,0000.0,0002.24,0006.44,0001.18
2024-03-01 21:36:00,SystemResetWarning,0821.8,5.00,000.00,024.9,024.2,000.0,033.0,026.7,08.8,0000.0,0002.27,0006.13,0001.18
2024-03-01 21:37:00,SystemResetWarning,0821.8,5.01,000.00,024.9,024.3,000.0,033.1,026.7,08.8,0000.0,0002.31,0006.48,0001.19
2024-03-01 21:38:00,SystemResetWarning,0821.7,5.00,000.00,025.0,024.3,000.0,033.1,026.7,08.8,0000.0,0002.34,0007.30,0001.21
2024-03-01 21:39:00,SystemResetWarning,0821.7,5.00,000.00,025.0,024.3,000.0,033.1,026.7,08.8,0000.0,0002.35,0007.00,0001.22
2024-03-01 21:40:00,SystemResetWarning,0821.7,5.00,000.00,025.0,024.3,000.0,033.1,026.7,08.9,0000.0,0002.42,0007.13,0001.22
2024-03-01 21:41:00,SystemResetWarning,0821.7,5.00,000.00,025.0,024.3,000.0,033.1,026.7,08.8,0000.0,0002.44,0007.27,0001.22
2024-03-01 21:42:00,SystemResetWarning,0821.7,5.00,000.00,025.0,024.3,000.0,033.1,026.7,08.9,0000.0,0002.45,0007.30,0001.24
2024-03-01 21:43:00,SystemResetWarning,0821.7,5.00,000.00,025.0,024.3,000.0,033.1,026.8,08.6,0000.0,0002.38,0007.16,0001.26
2024-03-01 21:44:00,SystemResetWarning,0821.7,5.00,000.00,025.0,024.3,000.0,033.1,026.8,08.7,0000.0,0002.39,0007.86,0001.28
2024-03-01 21:45:00,SystemResetWarning,0821.7,5.00,000.00,025.0,024.4,000.0,033.1,026.8,08.7,0000.0,0002.44,0008.50,0001.28
2024-03-01 21:46:00,SystemResetWarning,0821.7,5.00,000.00,025.0,024.4,000.0,033.1,026.8,08.6,0000.0,0002.43,0008.41,0001.28
2024-03-01 21:47:00,SystemResetWarning,0821.6,5.00,000.00,025.1,024.4,000.0,033.2,026.8,08.7,0000.0,0002.41,0008.53,0001.29
2024-03-01 21:48:00,SystemResetWarning,0821.6,5.00,000.00,025.1,024.4,000.0,033.2,026.8,08.6,0000.0,0002.48,0008.75,0001.31
2024-03-01 21:49:00,SystemResetWarning,0821.6,5.00,000.00,025.1,024.4,000.0,033.2,026.8,08.6,0000.0,0002.55,0008.29,0001.31
2024-03-01 21:50:00,SystemResetWarning,0821.8,4.99,000.00,025.1,024.4,000.0,033.2,026.8,08.7,0000.0,0002.61,0008.64,0001.31
2024-03-01 21:51:00,SystemResetWarning,0822.0,5.00,000.00,025.1,024.4,000.0,033.2,026.8,08.7,0000.0,0002.57,0008.66,0001.32
2024-03-01 21:52:00,SystemResetWarning,0821.8,5.00,000.00,025.1,024.4,000.0,033.2,026.9,08.7,0000.0,0002.59,0008.68,0001.32
2024-03-01 21:53:00,SystemResetWarning,0821.9,5.00,000.00,025.1,024.4,000.0,033.2,026.9,08.7,0000.0,0002.54,0008.77,0001.32
2024-03-01 21:54:00,SystemResetWarning,0821.6,5.00,000.00,025.1,024.5,000.0,033.2,026.9,08.6,0000.0,0002.54,0008.86,0001.31
2024-03-01 21:55:00,SystemResetWarning,0821.6,5.00,000.00,025.1,024.5,000.0,033.2,026.9,08.5,0000.0,0002.56,0008.72,0001.29
2024-03-01 21:56:00,SystemResetWarning,0821.8,4.99,000.00,025.2,024.5,000.0,033.3,026.9,08.7,0000.0,0002.48,0007.59,0001.29
2024-03-01 21:57:00,SystemResetWarning,0821.7,5.00,000.00,025.2,024.5,000.0,033.3,026.9,08.6,0000.0,0002.51,0007.09,0001.29
2024-03-01 21:58:00,SystemResetWarning,0821.7,5.01,000.00,025.2,024.5,000.0,033.3,026.9,08.6,0000.0,0002.54,0007.17,0001.28
2024-03-01 21:59:00,SystemResetWarning,0821.9,5.00,000.00,025.2,024.5,000.0,033.3,026.9,08.5,0000.0,0002.45,0006.60,0001.25
